Tracking 28091 objects as of 30-Sep-2023
HD Live streaming from Space Station
objects crossing your sky now

STARLINK-5860

Track STARLINK-5860 now!
10-day predictions
STARLINK-5860 is classified as:


NORAD ID: 57052
Int'l Code: 2023-088E
Perigee: 565.4 km
Apogee: 567.0 km
Inclination: 43.0 °
Period: 95.8 minutes
Semi major axis: 6937 km
RCS: Unknown
Launch date: June 22, 2023
Source: United States (US)
Launch site: AIR FORCE WESTERN TEST RANGE (AFWTR)
Your satellite tracking list
Your tracking list is empty




NASA's NSSDC Master Catalog

Two Line Element Set (TLE):
1 57052U 23088E   23273.13574858  .00002232  00000-0  18022-3 0  9993
2 57052  43.0008 272.2068 0001202 276.2646  83.8060 15.02541472 15351
Source of the keplerian elements: AFSPC